Weather History for Denver, CO

Change the Weather History Date:

Tuesday, July 9, 2013

  Actual Average Record
Temperature  
Mean Temperature 82 °F 74 °F  
Max Temperature 97 °F 89 °F 98 °F (1989)
Min Temperature 67 °F 58 °F 43 °F (1876)
Degree Days  
Heating Degree Days 0 0  
Month to date heating degree days 0 1  
Since 1 June heating degree days 29 63  
Since 1 July heating degree days 0 1  
Cooling Degree Days 17 9  
Month to date cooling degree days 99 74  
Year to date cooling degree days 362 229  
Since 1 June cooling degree days 320 207  
Growing Degree Days 32 (Base 50)    
Moisture  
Dew Point 39 °F    
Average Humidity 28    
Maximum Humidity 45    
Minimum Humidity 11    
Precipitation  
Precipitation 0.00 in 0.06 in 1.34 in (1990)
Month to date precipitation 0.10 0.51  
Year to date precipitation 6.09 8.02  
Snow  
Snow 0.00 in - - ()
Month to date snowfall 0  
Since 1 June snowfall 0  
Since 1 July snowfall 0  
Snow Depth 0.00 in    
Sea Level Pressure  
Sea Level Pressure 29.93 in    
Wind  
Wind Speed 9 mph (West)    
Max Wind Speed 20 mph    
Max Gust Speed 24 mph    
Visibility 10 miles    
Events      
T = Trace of Precipitation, MM = Missing Value Source: NWS Daily Summary

Daily Weather History Graph

Daily Weather History Graph

Search for Another Location

Airport:

Trip Planner

Search our weather history database for the weather conditions in past years. The results will help you decide how hot, cold, wet, or windy it might be!

Date:

Astronomy

Jul. 09, 2013 Rise Set
Actual Time 5:38 AM MDT 8:28 PM MDT
Civil Twilight 5:06 AM MDT 9:00 PM MDT
Nautical Twilight 4:26 AM MDT 9:41 PM MDT
Astronomical Twilight 3:39 AM MDT 10:27 PM MDT
Moon 7:05 AM MDT (7/9) 9:07 PM MDT (7/9)
Length of Visible Light 15h 54m
Length of Day
14h 49m
New Moon, 2% of the Moon is Illuminated
Jul 9
New Moon
Jul 15
First Quarter
Jul 22
Full
Jul 29
Last Quarter
Aug 6
New

Hourly Weather History & Observations

Time (MDT) Temp. Dew Point Humidity Pressure Visibility Wind Dir Wind Speed Gust Speed Precip Events Conditions
12:53 AM 72.0 °F 45.0 °F 38% 29.89 in 10.0 mi WSW 4.6 mph - N/A   Scattered Clouds
1:53 AM 71.1 °F 44.1 °F 38% 29.89 in 10.0 mi SW 5.8 mph - N/A   Scattered Clouds
2:53 AM 69.1 °F 44.1 °F 40% 29.89 in 10.0 mi SW 10.4 mph - N/A   Scattered Clouds
3:53 AM 68.0 °F 44.1 °F 42% 29.91 in 10.0 mi West 8.1 mph - N/A   Scattered Clouds
4:53 AM 66.9 °F 44.1 °F 44% 29.91 in 10.0 mi SW 12.7 mph - N/A   Scattered Clouds
5:53 AM 68.0 °F 44.1 °F 42% 29.91 in 10.0 mi SW 11.5 mph - N/A   Scattered Clouds
6:53 AM 72.0 °F 44.1 °F 37% 29.93 in 10.0 mi SW 11.5 mph - N/A   Scattered Clouds
7:53 AM 75.9 °F 43.0 °F 31% 29.94 in 10.0 mi SW 9.2 mph - N/A   Scattered Clouds
8:53 AM 84.0 °F 42.1 °F 23% 29.96 in 10.0 mi WSW 8.1 mph - N/A   Scattered Clouds
9:53 AM 88.0 °F 41.0 °F 19% 29.96 in 10.0 mi Variable 3.5 mph - N/A   Scattered Clouds
10:53 AM 91.9 °F 36.0 °F 14% 29.96 in 10.0 mi NNE 8.1 mph - N/A   Scattered Clouds
11:53 AM 93.9 °F 35.1 °F 13% 29.94 in 10.0 mi North 11.5 mph 21.9 mph N/A   Scattered Clouds
12:53 PM 93.9 °F 33.1 °F 12% 29.93 in 10.0 mi Variable 4.6 mph - N/A   Scattered Clouds
1:53 PM 93.0 °F 32.0 °F 12% 29.92 in 10.0 mi North 9.2 mph - N/A   Mostly Cloudy
2:53 PM 93.9 °F 33.1 °F 12% 29.92 in 10.0 mi West 10.4 mph 16.1 mph N/A   Mostly Cloudy
3:53 PM 95.0 °F 33.1 °F 11% 29.91 in 10.0 mi Variable 5.8 mph - N/A   Mostly Cloudy
4:53 PM 91.9 °F 35.1 °F 13% 29.91 in 10.0 mi WSW 11.5 mph - N/A   Mostly Cloudy
5:53 PM 93.0 °F 34.0 °F 12% 29.90 in 10.0 mi Variable 4.6 mph - N/A   Mostly Cloudy
6:53 PM 91.0 °F 35.1 °F 14% 29.90 in 10.0 mi NW 8.1 mph - N/A   Mostly Cloudy
7:37 PM 87.8 °F 39.2 °F 18% 30.19 in 10.0 mi SW 15.0 mph 23.0 mph N/A   Mostly Cloudy
7:53 PM 88.0 °F 39.0 °F 18% 29.91 in 10.0 mi WSW 12.7 mph - N/A   Mostly Cloudy
8:53 PM 82.9 °F 39.0 °F 21% 29.92 in 10.0 mi West 6.9 mph - N/A   Mostly Cloudy
9:53 PM 81.0 °F 41.0 °F 24% 29.95 in 10.0 mi North 3.5 mph - N/A   Scattered Clouds
10:53 PM 75.0 °F 39.9 °F 28% 29.96 in 10.0 mi East 10.4 mph - N/A   Scattered Clouds
11:53 PM 72.0 °F 44.1 °F 37% 29.97 in 10.0 mi East 18.4 mph 24.2 mph N/A   Mostly Cloudy